Flag for Switzerland Weather past 2 weeks in Meilen, Zurich, Switzerland

Now
65 °F

Mild.


Feels Like: 65 °F
Forecast: 56 / 73 °F
Wind: 2 mph from Southwest

Location: Zurich Town / Ville.

Current Time: May 4, 2015 at 6:13:44 PM

Latest Report: May 4, 2015 at 5:00 PM


Visibility: N/A

Pressure: 29.83 "Hg

Humidity: 74%

Dew point: 56 °F

Location of MeilenLocation

Historic Weather in Meilen — Graph

°F

Meilen temperature yesterday

Maximum temperature yesterday: 62 °F (at 6:00 PM)
Minimum temperature yesterday: 51 °F (at 1:00 AM)
Average temperature yesterday: 56 °F

Past Weeks' High & Low Weather Summary

 TemperatureHumidityPressure
High72 °F (Apr 22, 4:00 PM)99% (May 1, 11:00 AM)30.36 "Hg (May 1, 11:00 AM)
Low36 °F (Apr 29, 4:00 AM)19% (Apr 22, 7:00 PM)29.41 "Hg (Apr 27, 6:00 PM)
Average54 °F69%29.96 "Hg
* Reported Apr 19 4:00 PM — May 4 4:00 PM, Meilen, Weather by CustomWeather, © 2015

Note: Actual official high and low records may vary slightly from our data, if they occured in-between our weather recording intervals... More about our weather records

Advertising

Meilen weather history for previous 24 hours

 ConditionsComfort  
Time TempWeatherWind HumidityBarometerVisibility
4:00 PM
Mon, May 4
65 °FMild.2 mph71%29.82 "HgN/A
3:00 PM63 °FMild.1 mph84%29.86 "HgN/A
2:00 PM62 °FOvercast.1 mph82%29.88 "HgN/A
1:00 PM61 °FCool.1 mph90%29.88 "HgN/A
12:00 PM60 °FCool.1 mph90%29.89 "HgN/A
11:00 AM59 °FCool.2 mph94%29.90 "HgN/A
10:00 AM58 °FCool.2 mph99%29.90 "HgN/A
9:00 AM58 °FCool.2 mph98%29.90 "HgN/A
8:00 AM57 °FOvercast.5 mph98%29.90 "HgN/A
7:00 AM56 °FCool.1 mph99%29.90 "HgN/A
6:00 AM56 °FCool.1 mph99%29.89 "HgN/A
4:00 AM57 °FCool.2 mph99%29.88 "HgN/A
3:00 AM58 °FCool.3 mph97%29.88 "HgN/A
2:00 AM58 °FCool.6 mph96%29.87 "HgN/A
1:00 AM59 °FCool.5 mph94%29.86 "HgN/A
12:00 AM58 °FCool.6 mph95%29.86 "HgN/A
11:00 PM
Sun, May 3
60 °FCool.8 mph94%29.84 "HgN/A
10:00 PM60 °FCool.2 mph94%29.81 "HgN/A
9:00 PM60 °FCool.1 mph98%29.79 "HgN/A
8:00 PM60 °FPartly sunny.1 mph95%29.77 "HgN/A
7:00 PM62 °FCool.2 mph90%29.76 "HgN/A
6:00 PM62 °FCool.3 mph91%29.75 "HgN/A
Weather by CustomWeather, © 2015

See weather overviewHow to use our weather pages